Regional Weather Roundup
Issued by NWS

Home | Current Version | Previous Version | Graphics & Text | Print | Product List | Glossary On
Versions: 1 2 3 4 5 6 7 8 9 10 11 12 13 14 15 16 17 18 19 20 21 22 23 24 25 26 27
000
ASUS45 KCYS 152210
RWRWY

WYOMING REGIONAL WEATHER ROUNDUP
NATIONAL WEATHER SERVICE CHEYENNE WY
400 PM MDT TUE AUG 15 2017

NOTE:  "FAIR" INDICATES FEW OR NO CLOUDS BELOW 12,000 FEET
WITH NO SIGNIFICANT WEATHER AND/OR OBSTRUCTIONS TO VISIBILITY.

WYZ001-152300-
YELLOWSTONE NATIONAL PARK

CITY           SKY/WX    TMP DP  RH WIND       PRES   REMARKS
LK YELLOWSTONE   N/A     59  38  45 CALM      30.14R
W YELLOWSTONE  NOT AVBL

$$
WYZ002>013-054>058-071-098>099-152300-
NORTHERN WYOMING

CITY           SKY/WX    TMP DP  RH WIND       PRES   REMARKS
JACKSON        PTSUNNY   68  38  33 NW13      30.03F
CODY           FAIR      71  46  40 NW6       29.99S
GREYBULL       FAIR      76  47  35 S7        29.90F
WORLAND        FAIR      73  48  41 VRB3      29.93S
SHERIDAN       FAIR      73  43  33 E3        29.95F
BUFFALO        CLOUDY    65  43  44 NW8       30.01S
GILLETTE       PTSUNNY   66  49  54 NW13      29.95F
HULETT         MOCLDY    64  54  68 NW8       29.95S
NEWCASTLE      FAIR      70  50  49 NW13      29.92S

$$
WYZ014>020-022>026-101>103-152300-
CENTRAL WYOMING

CITY           SKY/WX    TMP DP  RH WIND       PRES   REMARKS
BIG PINEY      LGT RAIN  65  45  48 SW5       30.06S
PINEDALE       FAIR      66  34  30 N7G18     30.08S
DUBOIS         FAIR      61  41  48 SE8G20    30.08S
LANDER           N/A    N/A N/A N/A MISG      30.02F
RIVERTON       PTSUNNY   66  47  50 S6        30.00S
CASPER         PTSUNNY   67  53  61 N18       29.97R
DOUGLAS        CLOUDY    70  54  56 N7        29.93R THUNDER

$$
WYZ021-027>030-104>119-152300-
SOUTHERN WYOMING

CITY           SKY/WX    TMP DP  RH WIND       PRES   REMARKS
EVANSTON       FAIR      73  20  13 W13G23    30.06S
KEMMERER         N/A     70  36  28 W8        30.08F
FORT BRIDGER   FAIR      70  33  25 NW7G18    30.09S
ROCK SPRINGS   FAIR      66  45  46 CALM      30.06S
RAWLINS        LGT RAIN  55  46  71 W17       30.10R
SARATOGA       LGT RAIN  52  46  82 N13G24    30.16R
LARAMIE        PTSUNNY   65  43  44 NW3       30.05R
CHEYENNE       TSTM      61  47  59 NW15G35   29.99R
TORRINGTON     FAIR      77  54  44 E5        29.85S
PINE BLUFFS    FAIR      79  54  41 E6        29.89S

$$




USA.gov is the U.S. government's official web portal to all federal, state and local government web resources and services.